STARLINK-37007, 68302

Orbit data source: Space-Track

STARLINK-37007, 68302 is a payload satellite owned by SpaceX/Seattle (US) in SSO that was launched on Fri, 20 Mar 2026 UTC via an FALCON 9 launch vehicle from the Air Force Western Test Range (AFWTR). Payload-class satellites include a variety of spacecraft equipped with specific instruments for various scientific and technological missions. These include communications satellites like Starlink; space stations such as the ISS; scientific satellites like the Hubble; Earth observation satellites from companies like Planet Labs, Umbra, and HawkEye 360; GPS; miniature CubeSats for education and research; and military/defense satellites.

Loading next visibility...
Identifier
68302, 2026-057J
Orbit
SSO
Country
Flag of USUS
Related business
Manufacturer
SpaceX/Seattle
Mission
Operational spacecraft
Bus & Motor
STARLINK V2MO, Unknown motor
Mass
575 kg wet, ~530 kg dry
Launch date (UTC)
2026-03-20 (3 months ago)
Launch vehicle
FALCON 9
Launch site
Air Force Western Test Range (AFWTR)
Object type
Payload
Rocket body
Debris
Shape & HBR
Unknown shape, 17.7 m
Radar Cross Section
Large (>1 m²)

Expand to show TLE details & history
Last TLE update: 10 hours ago

TLE from 10 hours ago
0 STARLINK-37007
1 68302U 26057J   26171.42823177  .00014698  00000-0  45650-3 0  9991
2 68302  97.2852 298.1341 0001261  92.4685 267.6702 15.33459661 14408
Epoch: 2026-06-20T10:16Z
TLE epoch observation values (Epoch: 2026-06-20T10:16:39.224Z)
Latitude
-0.00006°
Longitude
-124.67232°
Altitude
468.647 km
Speed
7.632 km/s
True Right ascension
19h 52m 32s
True Declination
0° 00' 00"
Sunlit
Object was in full shadow at epoch
Visualization orbit readout
Latitude
Unknown
Longitude
Unknown
Altitude
Unknown
Speed
Unknown
Apparent Right ascension
Unknown
Apparent Declination
Unknown
Sunlit
N/A
Visualization observer readout
Local Sidereal Time
07:20:25
Azimuth
Unknown
Elevation
Unknown
Doppler factor
Unknown
Orbital elements
Apogee altitude
463.305 km
Perigee altitude
461.58 km
Semi-major axis
6,840.579 km
Eccentricity
0.00013
Inclination
97.2852°
RAAN
298.1341°
Arg. of periapsis
92.4685°
True anomaly
267.65576°
Mean anomaly
267.6702°
Eccentric anomaly
267.66298°
Mean motion
3.83622 °/min
Orbital period
93.84 mins
BSTAR
0.0004565
Loading maneuver chart data...
Computing Atmospheric mass density...
Loading historical data...
Loading historical data...
Loading historical data...
Loading historical data...
Loading historical data...
Loading historical data...
Loading historical data...

Documentation

Showing up to 5 results
|